Вернуться в каталог

STARLINK-34472

АктивенСвязьVLEO
NORAD 64434·PAYLOAD·🇺🇸 United States

Запущен Jun 17, 2025 с Vandenberg Space Force Base

Loading…

Ближайшие Пролёты (ближайшие 24 часа)

TLE

СвежийSource: CelesTrak SupGP

Эпоха: Sep 14, 2026, 21:07 UTC

1 64434C 25129Y   26257.88034722 -.00012499  00000+0 -43496-3 0  2578
2 64434  69.9991 315.8335 0003279 272.1305 190.7939 15.29574003    10

Отслеживайте STARLINK-34472 в реальном времени с AllMySat

Download on the App Store